[[{"header":{"parameterUnit":"m.s-1","parameterCategory":1,"la1":30.2991,"la2":30.254,"lo1":-89.0895,"lo2":-89.0444,"dy":0.0017,"dx":0.0017,"nx":28,"ny":28,"refTime":"2024-04-12T21:00:00:Z","depth":0,"parameterNumber":2,"parameterNumberName":"U-component_of_WINDS"},"data":[0,0,0,0,0,0,0,0,0,0,0,0,0,0,0,0,0,0,0,0,0,0,0,0,0,0,0,0,0,0,0,0,0,0,0,0,0,0,0,0,0,0,0,0,0,0,0,0,0,0,0,0,0,0,0,0,0,0,0.6983,0.6983,0,0.7026,0.7026,0.7026,0.7035,0.7034,0.7034,0.7034,0.7075,0.7077,0.7078,0,0,0,0,0,0,0,0,0,0,0,0,0,0.6904,0.6905,0.6982,0.6983,0.6984,0.7025,0.7026,0.7027,0.7035,0.7034,0.7034,0.7034,0.7075,0.7077,0.7078,0,0,0,0,0,0,0,0,0,0,0,0,0,0.6941,0.6906,0.6982,0.6993,0.6994,0.7025,0.7026,0.7027,0.7035,0.7034,0.7034,0.7033,0.7074,0.7076,0.7079,0.7102,0,0,0.7085,0.7086,0,0,0,0,0,0,0,0,0.6939,0.6944,0.6991,0.6992,0.6994,0.7024,0.7014,0.7052,0.7035,0.7019,0.7034,0.7033,0.7059,0.7062,0.7071,0.7104,0.7105,0.7085,0.7087,0.7087,0.7088,0,0,0,0,0,0,0,0.6937,0.6943,0.6999,0.6991,0.6993,0.6994,0.6999,0.7021,0.7041,0.7021,0.7021,0.7027,0.7059,0.7069,0.7072,0.7106,0.7085,0.7087,0.7088,0.7089,0.7157,0.7158,0,0,0,0,0,0,0.6933,0.694,0.6998,0.7001,0.6965,0.6996,0.7001,0.7015,0.7041,0.7045,0.7027,0.7027,0.7066,0.707,0.7074,0.7101,0.7087,0.7089,0.7091,0.7157,0.7157,0.7158,0,0,0,0,0,0,0.6931,0.6938,0.6996,0.6971,0.6978,0.6998,0.7013,0.7016,0.7026,0.7046,0.7049,0.7033,0.7065,0.7071,0.7094,0.7103,0.709,0.7092,0.7156,0.7157,0.7158,0.7157,0,0,0,0,0,0,0.6929,0.6937,0.6947,0.6971,0.698,0.7017,0.7014,0.7017,0.703,0.703,0.7053,0.7056,0.7065,0.7091,0.7096,0.7105,0.7094,0.7155,0.7156,0.7157,0.7156,0.7157,0.7158,0,0,0,0,0,0.6926,0.6945,0.6948,0.6955,0.6993,0.7018,0.7023,0.7034,0.703,0.704,0.7052,0.7055,0.7101,0.7093,0.71,0.7109,0.7155,0.7156,0.7157,0.7155,0.7157,0.7158,0,0,0,0,0,0,0.6921,0.6948,0.6952,0.6979,0.6996,0.7019,0.7032,0.7036,0.7053,0.7053,0.7065,0.707,0.7093,0.7103,0.7095,0.7132,0.7128,0.713,0.7124,0.7126,0.7127,0.7123,0.7096,0,0,0,0,0,0.6924,0.6943,0.6965,0.6987,0.6996,0.7012,0.7024,0.7031,0.7048,0.7055,0.707,0.7086,0.7104,0.7116,0.7133,0.7158,0.7162,0.7167,0.7168,0.7169,0.7171,0.7183,0.7185,0.7162,0.7162,0.7162,0,0,0.6928,0.6946,0.6957,0.6987,0.7001,0.7019,0.7018,0.7038,0.7051,0.7058,0.7081,0.7092,0.7111,0.7135,0.7146,0.7144,0.7178,0.7171,0.7171,0.7172,0.7184,0.7186,0.7188,0.7163,0.7163,0.7162,0,0,0.6946,0.6962,0.6981,0.6995,0.7016,0.7027,0.7031,0.7054,0.7061,0.7085,0.709,0.7105,0.7136,0.7149,0.7159,0.718,0.7183,0.7185,0.7191,0.7203,0.7205,0.7206,0.7212,0.7214,0.7187,0.7187,0.7187,0,0.6949,0.6978,0.6991,0.701,0.7022,0.7029,0.7048,0.7061,0.7086,0.7094,0.7092,0.713,0.7143,0.7169,0.7174,0.7183,0.7187,0.7183,0.7204,0.7205,0.7207,0.7213,0.7215,0.7187,0.7187,0.7187,0.7187,0,0.698,0.6999,0.7012,0.7037,0.7051,0.7069,0.7083,0.7095,0.7101,0.7111,0.7134,0.715,0.717,0.7177,0.7183,0.7203,0.7201,0.7201,0.7197,0.7209,0.7215,0.7217,0.7187,0.7187,0.7187,0.7187,0,0,0.6996,0.7027,0.7031,0.7042,0.7065,0.708,0.7098,0.7118,0.7128,0.7145,0.7159,0.7185,0.7184,0.7196,0.7203,0.7213,0.7227,0.7212,0.7213,0.7213,0.7248,0.7248,0.725,0.7229,0.7229,0.723,0.7246,0,0.7016,0.705,0.7061,0.7088,0.7106,0.7112,0.7128,0.7143,0.7153,0.7168,0.7178,0.7195,0.7195,0.7202,0.7212,0.7223,0.7234,0.7222,0.7241,0.7242,0.7236,0.7253,0.7253,0.7268,0.7249,0.7249,0.725,0,0.7043,0.7061,0.709,0.711,0.7117,0.7132,0.715,0.7165,0.7181,0.7188,0.72,0.7206,0.7224,0.7219,0.7243,0.7234,0.7243,0.7249,0.725,0.7252,0.7246,0.7254,0.7273,0.7275,0.7253,0.7253,0.7253,0,0.7051,0.7081,0.7103,0.7112,0.7135,0.7145,0.7155,0.7171,0.7182,0.7198,0.7205,0.7222,0.7232,0.7245,0.7254,0.725,0.7277,0.7273,0.7281,0.7281,0.7286,0.7286,0.7305,0.7293,0.7293,0.7293,0.7293,0,0.7071,0.7088,0.7106,0.7119,0.7138,0.715,0.7168,0.7178,0.7192,0.7206,0.7213,0.7226,0.7239,0.7253,0.726,0.7278,0.7282,0.7287,0.7288,0.7286,0.7285,0.7291,0.729,0.7293,0.7293,0.7293,0.7293,0,0.7082,0.7095,0.7118,0.7138,0.7144,0.7157,0.7174,0.7186,0.7195,0.7213,0.7218,0.7232,0.7249,0.726,0.7282,0.7287,0.7306,0.7308,0.73,0.7301,0.7308,0.7307,0.7332,0.7335,0.7321,0.7321,0.7321,0,0.7093,0.7107,0.7128,0.7139,0.7149,0.7165,0.7176,0.7188,0.7199,0.7218,0.7227,0.7244,0.7259,0.7285,0.7297,0.7313,0.7315,0.7322,0.7317,0.7313,0.7313,0.7312,0.7313,0.7323,0.7323,0.7323,0.7323,0,0.7112,0.7117,0.7133,0.7151,0.7165,0.7179,0.7194,0.7201,0.7215,0.7227,0.7244,0.7255,0.7277,0.7293,0.731,0.732,0.7323,0.7325,0.7327,0.7324,0.7319,0.7321,0.7301,0.7324,0.7324,0.7324,0.7324,0.7324,0.7123,0.7134,0.7151,0.7168,0.718,0.7194,0.7206,0.7217,0.7232,0.725,0.7256,0.7274,0.7288,0.7312,0.7321,0.7334,0.7333,0.7337,0.7338,0.7339,0.7338,0.7317,0.7337,0.7337,0.7337,0.7337,0.7337,0,0.714,0.7151,0.7167,0.7187,0.72,0.7203,0.7219,0.723,0.7245,0.7259,0.7273,0.7292,0.7308,0.7321,0.7337,0.7345,0.7347,0.7349,0.7348,0.7349,0.7338,0.7334,0.7347,0.7347,0.7347,0.7347,0.7347,0.7347,0.7151,0.717,0.7178,0.7202,0.7213,0.7231,0.724,0.7251,0.7262,0.7283,0.7297,0.7305,0.7318,0.7335,0.7349,0.7353,0.7358,0.7359,0.7362,0.7352,0.735,0.7349,0.7345,0.736,0.736,0.7372,0.7372,0.7372]},{"header":{"parameterUnit":"m.s-1","parameterCategory":1,"la1":30.2991,"la2":30.254,"lo1":-89.0895,"lo2":-89.0444,"dy":0.0017,"dx":0.0017,"nx":28,"ny":28,"refTime":"2024-04-12T21:00:00:Z","depth":0,"parameterNumber":3,"parameterNumberName":"V-component_of_WINDS"},"data":[0,0,0,0,0,0,0,0,0,0,0,0,0,0,0,0,0,0,0,0,0,0,0,0,0,0,0,0,0,0,0,0,0,0,0,0,0,0,0,0,0,0,0,0,0,0,0,0,0,0,0,0,0,0,0,0,0,0,1.635,1.635,0,1.6392,1.6393,1.6393,1.6376,1.6375,1.6374,1.6373,1.6415,1.6417,1.6419,0,0,0,0,0,0,0,0,0,0,0,0,0,1.6252,1.6254,1.635,1.6351,1.6351,1.6392,1.6393,1.6393,1.6376,1.6375,1.6374,1.6373,1.6414,1.6417,1.6419,0,0,0,0,0,0,0,0,0,0,0,0,0,1.6294,1.6254,1.635,1.6347,1.6348,1.6392,1.6393,1.6393,1.6376,1.6375,1.6373,1.6372,1.6414,1.6417,1.642,1.6469,0,0,1.6429,1.643,0,0,0,0,0,0,0,0,1.6292,1.6298,1.6347,1.6348,1.6348,1.6377,1.6374,1.6419,1.6377,1.6365,1.6373,1.6371,1.6404,1.6407,1.6419,1.6471,1.6472,1.6429,1.6431,1.6433,1.6433,0,0,0,0,0,0,0,1.6289,1.6296,1.6367,1.6348,1.6348,1.6343,1.6348,1.6382,1.6392,1.6366,1.6365,1.637,1.6404,1.6416,1.642,1.6473,1.6429,1.6432,1.6434,1.6435,1.6565,1.6566,0,0,0,0,0,0,1.6286,1.6294,1.6365,1.6368,1.6316,1.6346,1.6351,1.6369,1.6392,1.6394,1.6372,1.637,1.6411,1.6416,1.6421,1.6478,1.6432,1.6435,1.6437,1.6563,1.6565,1.6567,0,0,0,0,0,0,1.6284,1.6293,1.6364,1.633,1.6339,1.635,1.637,1.6371,1.6383,1.6396,1.6398,1.6382,1.641,1.6417,1.6456,1.648,1.6437,1.644,1.6561,1.6564,1.6566,1.6595,0,0,0,0,0,0,1.6281,1.6292,1.6312,1.6331,1.6341,1.6399,1.6372,1.6373,1.6389,1.6386,1.6407,1.6408,1.641,1.6452,1.646,1.6483,1.6442,1.6559,1.6562,1.6565,1.6592,1.6598,1.6603,0,0,0,0,0,1.6278,1.6318,1.6313,1.6322,1.6366,1.6401,1.6406,1.6407,1.6391,1.641,1.6418,1.6408,1.6476,1.6456,1.6465,1.6489,1.6558,1.6562,1.6565,1.6589,1.6597,1.6603,0,0,0,0,0,0,1.6302,1.6321,1.6315,1.6363,1.638,1.6398,1.6422,1.6415,1.6438,1.6434,1.6434,1.6438,1.6479,1.6488,1.6466,1.6537,1.6514,1.652,1.653,1.6537,1.6542,1.6539,1.6445,0,0,0,0,0,1.6312,1.634,1.6355,1.6396,1.6405,1.6412,1.6427,1.6426,1.6444,1.6451,1.6462,1.648,1.6504,1.6521,1.6545,1.6593,1.6596,1.6614,1.6619,1.6624,1.6629,1.6653,1.666,1.6579,1.6579,1.6579,0,0,1.6335,1.6349,1.6366,1.6401,1.6414,1.6442,1.6418,1.6449,1.6469,1.6456,1.6494,1.6502,1.6521,1.6565,1.6585,1.6574,1.6652,1.6628,1.6632,1.6634,1.6657,1.6665,1.6672,1.6581,1.6581,1.658,0,0,1.639,1.6404,1.6438,1.6452,1.6472,1.6477,1.6485,1.6503,1.6508,1.6546,1.6536,1.656,1.6604,1.6617,1.663,1.6687,1.6679,1.6695,1.6724,1.6748,1.6754,1.676,1.678,1.6787,1.67,1.67,1.67,0,1.6415,1.6457,1.6457,1.6488,1.6503,1.6492,1.6526,1.6539,1.6566,1.6576,1.6563,1.6617,1.6629,1.6674,1.6688,1.6699,1.6708,1.6693,1.6754,1.6759,1.6764,1.6783,1.6791,1.6701,1.6701,1.6701,1.6701,0,1.6487,1.6516,1.6541,1.6567,1.6585,1.6617,1.6621,1.6638,1.6635,1.664,1.6678,1.6692,1.6718,1.6729,1.6726,1.6773,1.6766,1.6753,1.6731,1.6774,1.6791,1.6799,1.6704,1.6703,1.6703,1.6702,0,0,1.6559,1.6583,1.6593,1.6604,1.6624,1.6646,1.6677,1.6702,1.6717,1.6735,1.6761,1.6797,1.6785,1.6799,1.6798,1.6818,1.6861,1.6803,1.6803,1.6813,1.6913,1.6922,1.693,1.6856,1.6857,1.6858,1.6911,0,1.6615,1.6671,1.667,1.6721,1.6747,1.6735,1.6762,1.6777,1.6782,1.6804,1.6809,1.6835,1.6817,1.6826,1.6846,1.6852,1.6881,1.6848,1.6878,1.6879,1.6874,1.694,1.695,1.6999,1.6918,1.6919,1.692,0,1.6689,1.6709,1.6762,1.6777,1.6788,1.6812,1.6834,1.6855,1.6871,1.6873,1.6888,1.6883,1.6913,1.6889,1.693,1.6908,1.692,1.6924,1.6926,1.6929,1.6902,1.6943,1.7015,1.7022,1.6931,1.693,1.6929,0,1.6735,1.6776,1.6812,1.6822,1.6841,1.6858,1.6866,1.6881,1.6895,1.6914,1.6923,1.6945,1.6957,1.6974,1.6974,1.6957,1.7015,1.6992,1.7017,1.7017,1.703,1.7029,1.7104,1.7038,1.7038,1.7038,1.7038,0,1.6798,1.683,1.6833,1.6856,1.6891,1.689,1.6925,1.6931,1.6944,1.6967,1.6958,1.6979,1.6979,1.7,1.7,1.7033,1.7039,1.7041,1.704,1.7041,1.7041,1.7049,1.7046,1.704,1.7039,1.7039,1.7039,0,1.6856,1.6859,1.6898,1.6912,1.6916,1.6942,1.6953,1.6974,1.6977,1.7006,1.7013,1.7018,1.7043,1.7044,1.7073,1.7073,1.7113,1.7109,1.7107,1.7107,1.7131,1.7129,1.7214,1.7224,1.7152,1.7153,1.7154,0,1.6896,1.692,1.6936,1.6951,1.696,1.6984,1.6998,1.6997,1.7012,1.7031,1.7049,1.7073,1.7092,1.7131,1.7137,1.7158,1.7154,1.7182,1.7157,1.7157,1.7154,1.7152,1.7154,1.7187,1.7188,1.7189,1.7189,0,1.6965,1.6965,1.6986,1.7008,1.7025,1.7042,1.7057,1.707,1.707,1.7087,1.7112,1.7126,1.7155,1.7178,1.7198,1.7206,1.7197,1.7197,1.7204,1.7205,1.7203,1.7203,1.712,1.7195,1.7195,1.7194,1.7194,1.7194,1.7015,1.7036,1.705,1.7073,1.7085,1.7099,1.7119,1.7124,1.7145,1.7168,1.7165,1.7192,1.7206,1.7232,1.7241,1.7261,1.7252,1.7262,1.7264,1.7267,1.7269,1.72,1.7265,1.7265,1.7265,1.7265,1.7265,0,1.7084,1.7092,1.7113,1.7135,1.7153,1.7143,1.7159,1.7175,1.7198,1.7212,1.723,1.7257,1.7279,1.7286,1.7307,1.7322,1.7318,1.7327,1.7326,1.7327,1.7277,1.7269,1.7329,1.7329,1.7329,1.7329,1.7329,1.7329,1.7121,1.7155,1.7157,1.7195,1.7203,1.723,1.7239,1.7252,1.7262,1.7293,1.7311,1.7316,1.7326,1.7347,1.7366,1.7367,1.7375,1.7385,1.7385,1.7338,1.7331,1.7325,1.7317,1.7387,1.7387,1.7434,1.7434,1.7435]}]]